"Pseudo-MPEC" for P222FIe

Created 2024 Dec 2 14:31:30 UT using Find_Orb

Click here for an explanation of pseudo-MPECs

 
 Astrometry: 
     P222FIe  C2024 10 25.45225603 36 44.975+30 53 15.14   ~BTDV 21.67GVNEOCPV00
     P222FIe  C2024 10 25.45785903 36 44.503+30 53 24.90   ~BTDV 22.21GVNEOCPV00
     P222FIe  C2024 10 25.46348303 36 44.053+30 53 34.37   ~BTDV 21.91GVNEOCPV00
     P222FIe  C2024 11 26.28884902 27 06.052+45 02 42.68   ~BTDV 21.47GVNEOCPV00
     P222FIe  C2024 11 26.29445102 27 05.137+45 02 49.09   ~BTDV 21.54GVNEOCPV00
     P222FIe  C2024 11 26.30005702 27 04.230+45 02 55.57   ~BTDV 21.60GVNEOCPV00
     P222FIe  C2024 11 26.30571202 27 03.323+45 03 01.76   ~BTDV 21.56GVNEOCPV00
     P222FIe* C2024 11 29.32856702 19 15.655+45 58 27.08   ~BT9V 21.44wXNEOCPF52
     P222FIe  C2024 11 29.33877702 19 14.035+45 58 37.82   ~BT9V 21.51wXNEOCPF52
     P222FIe  C2024 11 29.34903802 19 12.408+45 58 48.32   ~BT9V 21.84wXNEOCPF52
     P222FIe  C2024 11 29.44380302 18 57.396+46 00 24.90   ~BTL2 21.48GVNEOCPF51
     P222FIe  C2024 11 29.44444502 18 57.325+46 00 25.76   ~BTL2 21.43GVNEOCPF51
     P222FIe KB2024 11 30.87256 02 15 23.24 +46 24 21.3    ~BULl 20.7 RZNEOCP106
     P222FIe KB2024 11 30.87759 02 15 22.54 +46 24 25.8    ~BULl 21.4 RZNEOCP106
     P222FIe KB2024 11 30.88261 02 15 21.73 +46 24 29.9    ~BULl 21.6 RZNEOCP106

Station data:
(106) Črni Vrh  (N45.945905 E14.071100)  Slovenia.  Observer J. Skvarč. 0.6-m
   f/3.3 Deltagraph + CCD.
(F51) Pan-STARRS 1, Haleakala  (N20.707234 W156.255910)  US/Hawaii.
   Observers J. Bulger, T. Lowe, A. Schultz, M. Willman. Measurers K.
   Chambers, S. Chastel, T. de Boer, L. Denneau, J. Fairlamb, H. Flewelling,
   M. Huber, C.-C. Lin, E. Magnier, Y. Ramanjooloo, R. Wainscoat, R. Weryk.
   1.8-m Ritchey-Chrétien + CCD.
(F52) Pan-STARRS 2, Haleakala  (N20.707382 W156.255910)  US/Hawaii.
   Observers J. Bulger, T. Dukes, T. Lowe, A. Schultz, M. Willman. Measurers
   K. Chambers, S. Chastel, T. de Boer, L. Denneau, J. Fairlamb, H.
   Flewelling, M. Huber, C.-C. Lin, E. Magnier, Y. Ramanjooloo, R. Wainscoat,
   R. Weryk. 1.8-m Ritchey-Chrétien + CCD.
(V00) Kitt Peak-Bok  (N31.963125 W111.600190)  US/Arizona.  Observers T. A.
   Pruyne, B. M. Africano, E. J. Christensen, G. A. Farneth, D. C. Fuls, A.
   R. Gibbs, A. D. Grauer, H. Gröller, J. A. Johnson, R. A. Kowalski, S. M.
   Larson, G. J. Leonard, D. Rankin, R. L. Seaman, F. C. Shelly, K. W.
   Wierzchoś. 2.25-m reflector + 4x4K mosaic CCD.

Orbital elements:  P222FIe
   Perihelion 2025 Feb 9.29070 +/- 0.0276 TT =  6:58:36 (JD 2460715.79070)
Epoch 2024 Nov 30.0 TT = JDT 2460644.5   Earth MOID: 0.7168      AutoNEOCP
M 342.61207115 +/- 0.030            (J2000 ecliptic)
n   0.24390179 +/- 0.000343         Peri.   70.46317 +/- 0.043
a   2.53703259 +/- 0.00238          Node    34.56230 +/- 0.010
e   0.3974476 +/- 0.000328          Incl.   28.34621 +/- 0.023
P   4.04100                H 20.29  G  0.15   U  7.4
q 1.52869497 +/- 0.000616    Q 3.54537020 +/- 0.00415
From 15 observations 2024 Oct. 25-Nov. 30; mean residual 0".37
Residuals in arcseconds: 
241025 V00  .15+  .00     241126 V00  .02+  .31-    241129 F51  .16-  .01-    
241025 V00  .09-  .12+    241126 V00  .15+  .56-    241129 F51  .15+  .21+    
241025 V00  .03-  .09-    241129 F52  .06-  .11+    241130 106  .17-  .26-    
241126 V00  .01+  .41-    241129 F52  .04-  .21+    241130 106  .58+  .67-    
241126 V00  .03-  .40-    241129 F52  .00   .06+    241130 106  .17+  1.5-    

Ephemerides (geocentric):
Date (UTC) HH   RA             Dec           delta  r     elong  mag " sig PA
---- --------  ------------   ------------  ------ ------ -----  --- --------
2024 12 02 15  02 11 07.137   +46 52 03.35  .74773 1.6397 141.7 21.8 .339  13
2024 12 02 16  02 11 01.154   +46 52 41.50  .74783 1.6395 141.7 21.8 .343  13
2024 12 02 17  02 10 55.177   +46 53 19.59  .74792 1.6394 141.6 21.8 .348  12
2024 12 02 18  02 10 49.205   +46 53 57.62  .74802 1.6393 141.6 21.8 .352  12
2024 12 02 19  02 10 43.238   +46 54 35.59  .74812 1.6392 141.6 21.8 .356  12
2024 12 02 20  02 10 37.276   +46 55 13.50  .74821 1.6390 141.5 21.8 .361  12
2024 12 02 21  02 10 31.320   +46 55 51.34  .74831 1.6389 141.5 21.8 .365  12
2024 12 02 22  02 10 25.369   +46 56 29.12  .74840 1.6388 141.4 21.8 .370  11
2024 12 02 23  02 10 19.424   +46 57 06.84  .74850 1.6387 141.4 21.8 .374  11
2024 12 03 00  02 10 13.484   +46 57 44.50  .74860 1.6385 141.3 21.8 .379  11
2024 12 03 01  02 10 07.550   +46 58 22.10  .74870 1.6384 141.3 21.8 .383  11
2024 12 03 02  02 10 01.621   +46 58 59.63  .74879 1.6383 141.3 21.8 .388  11
2024 12 03 03  02 09 55.698   +46 59 37.10  .74889 1.6382 141.2 21.8 .392  10
2024 12 03 04  02 09 49.780   +47 00 14.52  .74899 1.6380 141.2 21.8 .397  10
2024 12 03 05  02 09 43.868   +47 00 51.87  .74909 1.6379 141.1 21.8 .401  10
2024 12 03 06  02 09 37.961   +47 01 29.16  .74919 1.6378 141.1 21.8 .406  10
2024 12 03 07  02 09 32.060   +47 02 06.39  .74929 1.6377 141.0 21.8 .410  10
2024 12 03 08  02 09 26.164   +47 02 43.56  .74939 1.6375 141.0 21.8 .415  10
2024 12 03 09  02 09 20.274   +47 03 20.66  .74949 1.6374 141.0 21.8 .419   9
2024 12 03 10  02 09 14.390   +47 03 57.71  .74959 1.6373 140.9 21.8 .424   9
2024 12 03 11  02 09 08.512   +47 04 34.70  .74969 1.6372 140.9 21.8 .428   9
2024 12 03 12  02 09 02.639   +47 05 11.62  .74979 1.6370 140.8 21.8 .433   9
2024 12 03 13  02 08 56.771   +47 05 48.49  .74989 1.6369 140.8 21.8 .437   9
2024 12 03 14  02 08 50.910   +47 06 25.29  .75000 1.6368 140.7 21.8 .442   8
2024 12 03 15  02 08 45.054   +47 07 02.04  .75010 1.6367 140.7 21.8 .447   8
2024 12 03 16  02 08 39.204   +47 07 38.72  .75020 1.6365 140.7 21.8 .451   8
2024 12 03 17  02 08 33.359   +47 08 15.34  .75030 1.6364 140.6 21.8 .456   8
2024 12 03 18  02 08 27.521   +47 08 51.91  .75041 1.6363 140.6 21.8 .461   8
2024 12 03 19  02 08 21.688   +47 09 28.41  .75051 1.6362 140.5 21.8 .465   7
2024 12 03 20  02 08 15.861   +47 10 04.85  .75061 1.6360 140.5 21.8 .470   7
2024 12 03 21  02 08 10.040   +47 10 41.24  .75072 1.6359 140.4 21.8 .475   7
2024 12 03 22  02 08 04.225   +47 11 17.56  .75082 1.6358 140.4 21.8 .479   7
2024 12 03 23  02 07 58.415   +47 11 53.83  .75093 1.6357 140.4 21.8 .484   7
2024 12 04 00  02 07 52.612   +47 12 30.03  .75103 1.6355 140.3 21.8 .489   6
2024 12 04 01  02 07 46.814   +47 13 06.18  .75114 1.6354 140.3 21.8 .493   6
2024 12 04 02  02 07 41.023   +47 13 42.26  .75124 1.6353 140.2 21.8 .498   6
2024 12 04 03  02 07 35.237   +47 14 18.29  .75135 1.6352 140.2 21.8 .503   6
2024 12 04 04  02 07 29.457   +47 14 54.26  .75145 1.6350 140.2 21.8 .508   6
2024 12 04 05  02 07 23.684   +47 15 30.17  .75156 1.6349 140.1 21.8 .512   6
2024 12 04 06  02 07 17.916   +47 16 06.01  .75167 1.6348 140.1 21.8 .517   5
2024 12 04 07  02 07 12.154   +47 16 41.80  .75178 1.6347 140.0 21.8 .522   5
2024 12 04 08  02 07 06.398   +47 17 17.54  .75188 1.6345 140.0 21.8 .527   5
2024 12 04 09  02 07 00.649   +47 17 53.21  .75199 1.6344 139.9 21.8 .531   5
2024 12 04 10  02 06 54.905   +47 18 28.82  .75210 1.6343 139.9 21.8 .536   5
2024 12 04 11  02 06 49.168   +47 19 04.38  .75221 1.6342 139.9 21.8 .541   4
2024 12 04 12  02 06 43.436   +47 19 39.87  .75232 1.6341 139.8 21.8 .546   4
2024 12 04 13  02 06 37.711   +47 20 15.31  .75243 1.6339 139.8 21.8 .551   4
2024 12 04 14  02 06 31.992   +47 20 50.69  .75254 1.6338 139.7 21.8 .556   4